Location: Walnut Point State Park
(39.6958°N, 88.0345°W)
Time: 21:37:30
(UTC-05:00)

Cosmos 1833 Rocket - Visible Passes

Search period start: 25 July 2016 00:00
Search period end: 04 August 2016 00:00
Orbit: 834 x 838 km, 71.0° (Epoch: 24 July)

Date Brightness Start Highest point End Pass type
(mag) Time Alt. Az. Time Alt. Az. Time Alt. Az.
25 Jul 5.0 01:03:26 10° WNW 01:04:19 11° W 01:04:19 11° W visible
25 Jul 4.8 21:18:32 10° NNE 21:20:46 12° NE 21:23:00 10° ENE visible
25 Jul 2.5 23:00:02 10° NNW 23:05:41 77° ENE 23:06:17 68° ESE visible
26 Jul 4.9 00:46:17 10° WNW 00:47:59 13° W 00:47:59 13° W visible
26 Jul 4.8 21:02:17 10° NNE 21:04:01 11° NE 21:05:44 10° ENE visible
26 Jul 2.6 22:43:23 10° NNW 22:49:00 70° ENE 22:49:59 58° ESE visible
27 Jul 4.8 00:29:14 10° WNW 00:31:40 15° W 00:31:40 15° W visible
27 Jul 4.9 20:46:16 10° NE 20:47:15 10° NE 20:48:14 10° NE visible
27 Jul 2.7 22:26:43 10° NNW 22:32:19 65° ENE 22:33:42 48° ESE visible
28 Jul 4.7 00:12:17 10° WNW 00:15:24 16° W 00:15:24 16° W visible
28 Jul 2.8 22:10:04 10° NNW 22:15:38 59° ENE 22:17:28 40° ESE visible
28 Jul 4.6 23:55:22 10° WNW 23:59:00 18° W 23:59:10 18° WSW visible
29 Jul 2.9 21:53:26 10° NNW 21:58:57 55° ENE 22:01:16 33° SE visible
29 Jul 4.5 23:38:29 10° NW 23:42:23 20° W 23:42:58 19° WSW visible
30 Jul 3.0 21:36:47 10° NNW 21:42:16 50° ENE 21:45:06 27° SE visible
30 Jul 4.4 23:21:37 10° NW 23:25:46 21° W 23:26:48 20° WSW visible
31 Jul 3.2 21:20:09 10° NNW 21:25:34 46° ENE 21:28:58 21° SE visible
31 Jul 4.3 23:04:47 10° NW 23:09:08 23° WSW 23:10:41 21° SW visible
01 Aug 3.3 21:03:31 10° N 21:08:52 42° ENE 21:12:54 17° SE visible
01 Aug 4.3 22:47:58 10° NW 22:52:31 26° WSW 22:54:36 20° SW visible
02 Aug 3.4 20:46:54 10° N 20:52:10 39° ENE 20:56:53 12° SE visible
02 Aug 4.2 22:31:11 10° NW 22:35:52 28° WSW 22:38:36 19° SW visible
03 Aug 3.5 20:30:17 10° N 20:35:27 36° ENE 20:40:36 10° SE visible
03 Aug 4.1 22:14:24 10° NW 22:19:14 30° WSW 22:22:38 17° SSW visible
